Location: Amsterdam
(30.7274°N, 84.4357°W)
Time: 22:00:48
(UTC+00:00)

Explorer 11/Cluster Stage 4 - Pass Details

Date: 21 February 2026
Orbit: 463 x 1176 km, 28.8° (Epoch: 9 March)

Event Time Altitude Azimuth Distance (km) Brightness Sun altitude
Rises 16:51:37 0° 245° (WSW) 3,352 9.9 46.5°
Reaches altitude 10° 16:54:27 10° 239° (WSW) 2,289 9.2 46.7°
Maximum altitude 16:59:32 46° 168° (SSE) 879 10.2 47.1°
Drops below altitude 10° 17:03:42 10° 94° (E) 1,882 8.9 47.3°
Sets 17:05:51 0° 88° (E) 2,695 9.5 47.5°
